World > North America > United States > Missouri > Wellington  

Wellington, MO Hourly Weather Updates

Feedback E-mail the Weather

Quick Clicks

Wellington, MO Weather Maps

°F °C°F °C
Wellington Weather Map
UTC Time: 4/18/2024, 00:49
Your Time:

Wellington, MO Regional Weather

Expires:202404180100;;926347
ASUS43 KEAX 180015
RWREAX

WEATHER ROUNDUP FOR EASTERN KANSAS AND NORTHWEST MISSOURI
NATIONAL WEATHER SERVICE KANSAS CITY/PLEASANT HILL MO
700 PM CDT WED APR 17 2024


MOZ001>008-011>017-020>025-030>033-038>040-044>046-053-054-180100-
...NORTHERN AND CENTRAL MISSOURI...
  
CITY           SKY/WX    TMP DP  RH WIND       PRES   REMARKS
ST. JOSEPH     MOSUNNY   73  42  32 NE7       29.90F                  
6HR MIN TEMP:  69; 6HR MAX TEMP:  76;                                

MOSBY          MOSUNNY   75  39  27 CALM      29.90S                  
HARRISONVILLE  MOSUNNY   79  41  25 CALM      29.92F                  
WHITEMAN AFB   NOT AVBL                                               
CLINTON        CLEAR     79  43  27 CALM      29.91S                  
SEDALIA        CLEAR     79  39  23 CALM      29.92S                  
6HR MIN TEMP:  75; 6HR MAX TEMP:  82;                                

MARSHALL       CLEAR     72  45  37 N3        29.93S                  
CHILLICOTHE      N/A     73  46  38 N3        29.93S                  
6HR MIN TEMP:  66; 6HR MAX TEMP:  74;                                

MOBERLY        CLEAR     72  41  33 NW5       29.95R                  
KIRKSVILLE     MOCLDY    65  46  50 NW5       29.94R                  
6HR MIN TEMP:  63; 6HR MAX TEMP:  70;                                


$$


SKY/WX - Weather  TMP - Temperature  DP - Dew Point  RH - Humidity
WIND - Wind Direction/Speed PRES - Barometric Pressure VSB - Visibility
WCI - Wind Chill Index E13G22 Wind - East Wind 13 mph/Gusts of 22 mph

Trending Headlines

Trending Entertainment Headlines

Wellington Radar Loop

Use the map search tool if you want to place a location marker on the radar map...

Wellington Quick Facts

National Two Day Weather Forecast


E-mail the Wellington Weather Forecast

Voice your opinion or tell us about page issues...